Dubuque, IA

8:02 PM CST on November 16, 2019 (GMT -0600)
Dubuque Regional

Weather History for KDBQ - September, 2019

Change the Weather History Date:

Monday, September 30, 2019

  Actual Average Record
Temperature  
Mean Temperature 75 °F 56 °F  
Max Temperature 86 °F 67 °F 89 °F (1897)
Min Temperature 64 °F 45 °F 24 °F (1899)
Degree Days  
Heating Degree Days 0 10  
Month to date heating degree days 152  
Since 1 July heating degree days 178  
Cooling Degree Days 10 1  
Month to date cooling degree days 61  
Year to date cooling degree days 637  
Growing Degree Days 25 (Base 50)    
Moisture  
Dew Point 69 °F    
Average Humidity 87    
Maximum Humidity 100    
Minimum Humidity 63    
Precipitation  
Precipitation 0.00 in 0.10 in 2.64 in (1961)
Month to date precipitation 3.46  
Year to date precipitation 29.44  
Snow  
Snow - 0.00 in - ()
Month to date snowfall 0.0  
Since 1 July snowfall 0.0  
Since 1 September snowfall 0.0  
Snow Depth -    
Sea Level Pressure  
Sea Level Pressure 29.94 in    
Wind  
Wind Speed 10 mph ()    
Max Wind Speed 21 mph    
Max Gust Speed 32 mph    
Visibility 6.3 miles    
Events Fog    
T = Trace of Precipitation, MM = Missing Value Source: Averaged Metar Reports

Daily Weather History Graph

Daily Weather History Graph

Search for Another Location

Airport or City:

Astronomy

Sep. 30, 2019 Rise Set
Actual Time 6:58 AM CDT 6:46 PM CDT
Civil Twilight 6:30 AM CDT 7:14 PM CDT
Nautical Twilight 5:57 AM CDT 7:46 PM CDT
Astronomical Twilight 5:24 AM CDT 8:19 PM CDT
Moon 9:04 AM CDT (9/30) 8:19 PM CDT (9/30)
Length of Visible Light 12h 43m
Length of Day
11h 47m
Waxing Crescent, 6% of the Moon is Illuminated
Sep 30
Waxing Crescent
Oct 5
First Quarter
Oct 13
Full
Oct 21
Last Quarter
Oct 27
New

Hourly Weather History & Observations

Time (CDT) Temp. Heat Index Dew Point Humidity Pressure Visibility Wind Dir Wind Speed Gust Speed Precip Events Conditions
12:53 AM 64.9 °F - 64.9 °F 100% 30.04 in 0.2 mi SE 10.4 mph - N/A Fog Fog
1:31 AM 64.9 °F - 64.9 °F 100% 30.03 in 0.2 mi SE 9.2 mph - N/A Fog Fog
1:53 AM 64.9 °F - 64.9 °F 100% 30.03 in 0.2 mi SE 11.5 mph - N/A Fog Fog
2:02 AM 64.9 °F - 64.9 °F 100% 30.03 in 0.2 mi SSE 8.1 mph - N/A Fog Fog
2:33 AM 66.0 °F - - N/A% 30.02 in 0.2 mi SSE 9.2 mph - N/A Fog Fog
2:53 AM 66.0 °F - 66.0 °F 100% 30.01 in 0.5 mi SSE 8.1 mph - N/A Fog Fog
3:53 AM 66.9 °F - 66.9 °F 100% 30.00 in 0.8 mi South 6.9 mph - N/A   Mist
4:00 AM 66.9 °F - 66.9 °F 100% 30.00 in 2.0 mi SSE 10.4 mph - N/A   Overcast
4:12 AM 66.9 °F - 66.9 °F 100% 30.00 in 1.0 mi SSE 9.2 mph - N/A   Mist
4:23 AM 66.9 °F - 66.9 °F 100% 30.00 in 3.0 mi SSE 8.1 mph - N/A   Overcast
4:53 AM 66.9 °F - 66.9 °F 100% 30.00 in 4.0 mi South 6.9 mph - N/A   Overcast
5:00 AM 68.0 °F - 68.0 °F 100% 30.00 in 4.0 mi South 9.2 mph - N/A   Overcast
5:53 AM 68.0 °F - 68.0 °F 100% 29.99 in 6.0 mi South 8.1 mph - N/A   Overcast
6:53 AM 68.0 °F - 68.0 °F 100% 29.98 in 7.0 mi South 9.2 mph - N/A   Mostly Cloudy
7:53 AM 68.0 °F - 68.0 °F 100% 29.97 in 6.0 mi South 9.2 mph - N/A   Partly Cloudy
8:53 AM 71.1 °F - 69.1 °F 93% 29.96 in 10.0 mi SSW 12.7 mph - N/A   Mostly Cloudy
9:53 AM 75.0 °F - 70.0 °F 84% 29.94 in 10.0 mi South 17.3 mph - N/A   Clear
10:53 AM 78.1 °F - 70.0 °F 76% 29.93 in 10.0 mi SSW 18.4 mph 25.3 mph N/A   Partly Cloudy
11:53 AM 81.0 °F 84.9 °F 71.1 °F 72% 29.91 in 10.0 mi SSW 18.4 mph 25.3 mph N/A   Scattered Clouds
12:53 PM 82.9 °F 88.0 °F 72.0 °F 69% 29.89 in 10.0 mi SSW 17.3 mph 26.5 mph N/A   Partly Cloudy
1:53 PM 84.9 °F 90.7 °F 72.0 °F 65% 29.86 in 10.0 mi South 20.7 mph 27.6 mph N/A   Clear
2:53 PM 86.0 °F 92.2 °F 72.0 °F 63% 29.86 in 10.0 mi South 18.4 mph 31.1 mph N/A   Clear
3:53 PM 84.0 °F 89.0 °F 71.1 °F 65% 29.85 in 10.0 mi SSW 19.6 mph 32.2 mph N/A   Clear
4:53 PM 82.9 °F 87.5 °F 71.1 °F 67% 29.86 in 10.0 mi South 17.3 mph - N/A   Clear
5:53 PM 82.9 °F 87.0 °F 70.0 °F 65% 29.84 in 10.0 mi South 17.3 mph 27.6 mph N/A   Clear
6:53 PM 79.0 °F - 71.1 °F 77% 29.83 in 10.0 mi South 16.1 mph - N/A   Clear
7:53 PM 77.0 °F - 70.0 °F 79% 29.84 in 10.0 mi South 18.4 mph 24.2 mph N/A   Clear
8:53 PM 75.9 °F - 69.1 °F 79% 29.86 in 10.0 mi SSW 13.8 mph - N/A   Clear
9:53 PM 75.0 °F - 69.1 °F 82% 29.88 in 10.0 mi SSW 12.7 mph - N/A   Clear
10:53 PM 73.0 °F - 69.1 °F 87% 29.89 in 10.0 mi SSW 12.7 mph - N/A   Clear
11:53 PM 72.0 °F - 69.1 °F 91% 29.90 in 10.0 mi SSW 10.4 mph - N/A   Clear